This is the latest recevied weather packets stored in our database for station/object F4NFR-13. If no packets are shown the sender has not sent any weather packets the latest 10 day(s).
| Time | Temp. | Humidity | Pressure | Rain* | Wind** | Luminosity | Snow |
|---|---|---|---|---|---|---|---|
| 1778144740 | 12.78° C | 71% | 1017.8 hPa | 0 mm | - | 162 W/m² | - |
| 1778144469 | 12.78° C | 70% | 1017.8 hPa | 0 mm | - | 169 W/m² | - |
| 1778144134 | 12.22° C | 69% | 1017.8 hPa | 0 mm | - | 169 W/m² | - |
| 1778143831 | 12.78° C | 72% | 1017.8 hPa | 0 mm | - | 148 W/m² | - |
| 1778143529 | 12.22° C | 73% | 1017.8 hPa | 0 mm | - | 148 W/m² | - |
| 1778143227 | 12.22° C | 72% | 1017.8 hPa | 0 mm | - | 148 W/m² | - |
| 1778142924 | 12.22° C | 71% | 1017.8 hPa | 0 mm | - | 152 W/m² | - |
| 1778142320 | 12.78° C | 73% | 1017.8 hPa | 0 mm | - | 157 W/m² | - |
| 1778142017 | 12.22° C | 71% | 1017.8 hPa | 0 mm | - | 167 W/m² | - |
| 1778141714 | 12.78° C | 70% | 1017.8 hPa | 0 mm | - | 190 W/m² | - |
| 1778141411 | 12.78° C | 71% | 1017.8 hPa | 0 mm | - | - | - |
| 1778141109 | 12.78° C | 73% | 1017.8 hPa | 0 mm | - | 240 W/m² | - |
| 1778140807 | 12.78° C | 71% | 1017.8 hPa | 0 mm | - | 0 W/m² | - |
| 1778140504 | 12.78° C | 72% | 1017.8 hPa | 0 mm | - | 210 W/m² | - |
| 1778139900 | 12.78° C | 71% | 1017.8 hPa | 0 mm | - | 0 W/m² | - |
| 1778139597 | 12.78° C | 72% | 1017.8 hPa | 0 mm | - | 254 W/m² | - |
| 1778139295 | 12.78° C | 69% | 1017.8 hPa | 0 mm | - | 0 W/m² | - |
| 1778138992 | 12.78° C | 73% | 1017.8 hPa | 0 mm | - | 0 W/m² | - |
| 1778138690 | 12.78° C | 74% | 1017.8 hPa | 0 mm | - | 0 W/m² | - |
| 1778138387 | 12.78° C | 73% | 1017.8 hPa | 0 mm | - | 0 W/m² | - |
| 1778138085 | 12.78° C | 74% | 1017.8 hPa | 0 mm | - | 319 W/m² | - |
| 1778137782 | 12.78° C | 73% | 1017.8 hPa | 0 mm | - | 302 W/m² | - |
| 1778137480 | 12.78° C | 74% | 1017.8 hPa | 0 mm | - | 305 W/m² | - |
| 1778137178 | 12.78° C | 73% | 1017.8 hPa | 0 mm | - | 313 W/m² | - |
| 1778136875 | 12.78° C | 71% | 1017.8 hPa | 0 mm | - | 312 W/m² | - |
* Rain latest hour (hover to see other rain measurements)
** Current wind speed in m/s (hover to see current wind gust speed)